EW1549 Weather Reports


time (UTC)temp
F
wind
direction
speed
knots
gust
knots
rain 1hr
in
rain 24hr
in
rain mn
in
humidity
%
barometer
mb
20260902113027 0 46 6.1 16.5 0.00 0.00 0.00 1018.7
20260902111522 0 29 7.8 15.6 0.00 0.00 0.00 1018.7
20260902110025 0 20 8.7 15.6 0.00 0.00 0.00 1018.7
20260902104522 0 1 8.7 16.5 0.00 0.00 0.00 1018.7
20260902103017 0 23 7.8 15.6 0.00 0.00 0.00 1018.5
20260902101506 0 41 2.6 13.0 0.00 0.00 0.00 1018.6
20260902100012 0 8 0.0 5.2 0.00 0.00 0.00 1018.6
20260902094505 0 3 6.1 12.2 0.00 0.00 0.00 1018.6
20260902093001 0 339 5.2 9.6 0.00 0.00 0.00 1018.6
20260902091558 0 356 2.6 11.3 0.00 0.00 0.00 1018.5
20260902090059 0 28 0.0 7.0 0.00 0.00 0.00 1018.5
20260902084547 0 238 3.5 7.0 0.00 0.00 0.00 1018.2
20260902083045 0 243 1.7 6.1 0.00 0.00 0.00 1018.1
20260902081541 0 212 0.9 7.0 0.00 0.00 0.00 1017.8
20260902080033 0 248 4.3 13.9 0.00 0.00 0.00 1017.6
20260902074539 0 229 3.5 7.0 0.00 0.00 0.00 1017.6
20260902073025 0 247 0.9 4.3 0.00 0.00 0.00 1017.5
20260902071521 0 252 0.0 0.0 0.00 0.00 0.00 1017.4
20260902070017 0 260 2.6 9.6 0.00 0.00 0.00 1017.3
20260902064512 0 75 5.2 18.2 0.00 0.00 0.00 1017.4
20260902063016 0 303 8.7 16.5 0.00 0.00 0.00 1017.3
20260902061521 0 287 3.5 13.9 0.00 0.00 0.00 1017.2
20260902060111 0 273 2.6 8.7 0.00 0.00 0.00 1017.1
20260902054559 0 325 4.3 7.8 0.00 0.00 0.00 1017.0
20260902053102 0 238 4.3 9.6 0.00 0.00 0.00 1016.9
20260902051555 0 54 4.3 18.2 0.00 0.00 0.00 1016.8
20260902050047 0 354 3.5 15.6 0.00 0.00 0.00 1016.7
20260902044540 0 227 8.7 17.4 0.00 0.00 0.00 1016.5
20260902043037 0 31 9.6 16.5 0.00 0.00 0.00 1016.6
20260902041535 0 70 0.0 20.0 0.00 0.00 0.00 1016.8
20260902040026 0 265 6.1 10.4 0.00 0.00 0.00 1016.7
20260902034526 0 201 2.6 8.7 0.00 0.00 0.00 1017.0
20260902033017 0 259 0.9 5.2 0.00 0.00 0.00 1017.1
20260902031516 0 342 4.3 7.0 0.00 0.00 0.00 1017.1
20260902030007 0 219 0.0 5.2 0.00 0.00 0.00 1017.2
20260902024503 0 228 0.9 7.0 0.00 0.00 0.00 1017.2
20260902023103 0 250 3.5 13.9 0.00 0.00 0.00 1017.1
20260902021555 0 214 0.9 13.0 0.00 0.00 0.00 1017.2
20260902020056 0 226 6.1 10.4 0.00 0.00 0.00 1017.2
20260902014543 0 231 5.2 12.2 0.00 0.00 0.00 1017.4
20260902013039 0 230 2.6 7.8 0.00 0.00 0.00 1017.6
20260902011532 0 221 6.1 8.7 0.00 0.00 0.00 1017.7
20260902010033 0 258 2.6 8.7 0.00 0.00 0.00 1017.8
20260902004520 0 233 7.0 11.3 0.00 0.00 0.00 1017.8
20260902003018 0 241 5.2 8.7 0.00 0.00 0.00 1018.0
20260902001517 0 258 0.0 3.5 0.00 0.00 0.00 1017.9
20260902000018 0 271 1.7 7.8 0.00 0.00 0.00 1018.0
20260901234503 0 308 1.7 8.7 0.00 0.00 0.00 1018.2
20260901233104 0 274 2.6 14.8 0.00 0.00 0.00 1018.4
20260901231557 0 253 1.7 7.8 0.00 0.00 0.00 1018.4
20260901230045 0 36 3.5 9.6 0.00 0.00 0.00 1018.4
20260901224545 0 260 0.0 9.6 0.00 0.00 0.00 1018.3
20260901223046 0 19 6.1 12.2 0.00 0.00 0.00 1018.5
20260901221543 0 243 4.3 7.8 0.00 0.00 0.00 1018.6
20260901220107 0 54 5.2 9.6 0.00 0.00 0.00 1018.5
20260901214542 0 231 0.9 5.2 0.00 0.00 0.00 1018.7
20260901213041 0 231 2.6 8.7 0.00 0.00 0.00 1018.6
20260901211543 0 303 1.7 12.2 0.00 0.00 0.00 1018.4
20260901210046 0 11 2.6 8.7 0.00 0.00 0.00 1018.3
20260901204539 0 7 1.7 17.4 0.00 0.00 0.00 1018.0
20260901203039 0 36 3.5 16.5 0.00 0.00 0.00 1017.8
20260901201538 0 122 0.9 15.6 0.00 0.00 0.00 1017.6
20260901200028 0 59 6.1 17.4 0.00 0.00 0.00 1017.4
20260901194523 0 17 10.4 18.2 0.00 0.00 0.00 1017.2
20260901193022 0 360 10.4 16.5 0.00 0.00 0.00 1017.0
20260901191514 0 46 6.1 16.5 0.00 0.00 0.00 1017.0
20260901190010 0 46 9.6 13.9 0.00 0.00 0.00 1017.0
20260901184510 0 14 6.1 16.5 0.00 0.00 0.00 1016.9
20260901183003 0 9 11.3 16.5 0.00 0.00 0.00 1016.7
20260901181601 0 26 9.6 20.9 0.00 0.00 0.00 1016.9
20260901180053 0 63 9.6 18.2 0.00 0.00 0.00 1016.9
20260901174549 0 36 7.0 21.7 0.00 0.00 0.00 1016.9
20260901173046 0 354 5.2 25.2 0.00 0.00 0.00 1016.9
20260901171549 0 41 9.6 20.0 0.00 0.00 0.00 1016.9
20260901170100 0 76 10.4 26.9 0.00 0.00 0.00 1016.8
20260901164537 0 330 8.7 25.2 0.00 0.00 0.00 1016.7
20260901163038 0 41 11.3 20.0 0.00 0.00 0.00 1016.7
20260901161525 0 28 10.4 20.0 0.00 0.00 0.00 1016.7
20260901160020 0 336 8.7 17.4 0.00 0.00 0.00 1016.7
20260901154515 0 352 7.0 16.5 0.00 0.00 0.00 1016.8
20260901153011 0 50 7.8 15.6 0.00 0.00 0.00 1016.9
20260901151510 0 46 0.9 17.4 0.00 0.00 0.00 1017.1
20260901150004 0 36 5.2 18.2 0.00 0.00 0.00 1017.2
20260901144502 0 46 8.7 15.6 0.00 0.00 0.00 1017.5
20260901143101 0 6 9.6 19.1 0.00 0.00 0.00 1017.6
20260901141600 0 52 8.7 17.4 0.00 0.00 0.00 1017.6
20260901140108 0 14 6.1 18.2 0.00 0.00 0.00 1017.9
20260901134557 0 55 10.4 17.4 0.00 0.00 0.00 1017.8
20260901133032 0 354 7.8 15.6 0.00 0.00 0.00 1018.0
20260901131539 0 24 9.6 15.6 0.00 0.00 0.00 1018.2
20260901130024 0 46 7.8 14.8 0.00 0.00 0.00 1018.4
20260901124521 0 36 8.7 13.0 0.00 0.00 0.00 1018.6
20260901123030 0 59 1.7 19.1 0.00 0.00 0.00 1018.6
20260901121520 0 3 11.3 19.1 0.00 0.00 0.00 1018.6
20260901120019 0 20 6.1 19.1 0.00 0.00 0.00 1018.8
20260901114535 0 46 5.2 26.9 0.00 0.00 0.00 1018.8